CW1172 Weather Reports


time (UTC)temp
C
wind
direction
speed
KPH
gust
KPH
rain 1hr
cm
rain 24hr
cm
rain mn
cm
humidity
%
barometer
mb
20260505101544 12 327 0.0 0.0 0.00 0.00 0.00 35 1010.3
20260505100037 11 334 0.0 0.0 0.00 0.00 0.00 33 1010.3
20260505094534 11 318 0.0 0.0 0.00 0.00 0.00 36 1010.3
20260505093034 11 278 0.0 0.0 0.00 0.00 0.00 36 1010.2
20260505091536 11 282 0.0 0.0 0.00 0.00 0.00 40 1010.1
20260505090041 11 360 0.0 0.0 0.00 0.00 0.00 40 1010.0
20260505084543 10 258 0.0 0.0 0.00 0.00 0.00 40 1009.7
20260505083031 11 319 0.0 0.0 0.00 0.00 0.00 43 1009.6
20260505081530 10 265 0.0 0.0 0.00 0.00 0.00 43 1009.6
20260505080040 10 235 0.0 0.0 0.00 0.00 0.00 42 1009.6
20260505074526 10 237 0.0 0.0 0.00 0.00 0.00 44 1009.6
20260505073029 10 360 0.0 0.0 0.00 0.00 0.00 45 1009.5
20260505071518 9 296 0.0 0.0 0.00 0.00 0.00 48 1009.5
20260505070015 8 329 0.0 0.0 0.00 0.00 0.00 48 1009.4
20260505064515 8 360 0.0 0.0 0.00 0.00 0.00 50 1009.3
20260505063014 7 327 0.0 0.0 0.00 0.00 0.00 50 1009.3
20260505061513 7 325 0.0 0.0 0.00 0.00 0.00 52 1009.3
20260505060013 6 360 0.0 0.0 0.00 0.00 0.00 54 1009.3
20260505054511 6 360 0.0 0.0 0.00 0.00 0.00 55 1009.3
20260505053010 5 360 0.0 0.0 0.00 0.00 0.00 57 1009.1
20260505051510 5 315 0.0 0.0 0.00 0.00 0.00 58 1009.0
20260505041504 4 304 0.0 0.0 0.00 0.00 0.00 63 1008.5
20260505040001 4 298 0.0 0.0 0.00 0.00 0.00 66 1008.4
20260505034601 5 298 0.0 0.0 0.00 0.00 0.00 64 1008.3
20260505033100 5 360 0.0 0.0 0.00 0.00 0.00 64 1008.3
20260505031601 5 329 0.0 0.0 0.00 0.00 0.00 66 1008.2
20260505030059 6 360 0.0 0.0 0.00 0.00 0.00 64 1008.1
20260505024555 6 311 0.0 0.0 0.00 0.00 0.00 65 1007.9
20260505023052 6 264 0.0 0.0 0.00 0.00 0.00 67 1007.9
20260505021549 6 294 0.0 0.0 0.00 0.00 0.00 68 1007.7
20260505020051 6 294 0.0 0.0 0.00 0.00 0.00 68 1007.7
20260505014602 7 307 0.0 0.0 0.00 0.00 0.00 69 1007.7
20260505013047 7 322 0.0 0.0 0.00 0.00 0.00 69 1007.6
20260505011550 7 309 0.0 0.0 0.00 0.00 0.00 74 1007.6
20260505010043 7 360 0.0 0.0 0.00 0.00 0.00 79 1007.5
20260505004544 7 332 0.0 0.0 0.00 0.00 0.00 83 1007.5
20260505003042 7 273 0.0 0.0 0.00 0.00 0.00 83 1007.4
20260505001544 8 242 0.0 0.0 0.00 0.00 0.00 83 1007.2
20260505000042 8 261 0.0 0.0 0.00 0.00 0.00 83 1007.3
20260504234540 8 284 0.0 0.0 0.00 0.00 0.00 82 1007.2
20260504233041 8 360 0.0 0.0 0.00 0.00 0.00 82 1007.2
20260504231540 8 247 0.0 0.0 0.00 0.00 0.00 82 1007.2
20260504230040 8 237 0.0 0.0 0.00 0.00 0.00 81 1007.2
20260504224541 8 216 0.0 0.0 0.00 0.00 0.00 80 1007.1
20260504223035 8 226 0.0 0.0 0.00 0.00 0.00 80 1007.0
20260504221534 8 262 0.0 0.0 0.00 0.00 0.00 80 1007.0
20260504220033 8 360 0.0 0.0 0.00 0.00 0.00 80 1007.0
20260504214532 8 260 0.0 0.0 0.00 0.00 0.00 80 1007.0
20260504213031 8 225 0.0 0.0 0.00 0.00 0.00 80 1007.0
20260504211533 8 244 0.0 0.0 0.00 0.00 0.00 79 1006.9
20260504210039 8 252 0.0 0.0 0.00 0.00 0.00 79 1007.0
20260504204544 8 360 0.0 0.0 0.00 0.00 0.00 80 1006.9
20260504203031 8 360 0.0 0.0 0.00 0.00 0.00 81 1006.9
20260504201530 8 206 0.0 0.0 0.00 0.00 0.00 82 1006.9
20260504200030 8 236 0.0 0.0 0.00 0.00 0.00 83 1007.0
20260504194530 8 218 0.0 0.0 0.00 0.00 0.00 83 1006.9
20260504193030 8 196 0.0 0.0 0.00 0.00 0.00 82 1006.9
20260504191531 8 180 0.0 0.0 0.00 0.00 0.00 82 1007.0
20260504190028 9 205 0.0 0.0 0.00 0.00 0.00 81 1006.8
20260504184532 9 245 0.0 0.0 0.00 0.00 0.00 79 1007.0
20260504183031 10 223 0.0 0.0 0.00 0.00 0.00 78 1006.9
20260504181531 10 232 0.0 0.0 0.00 0.00 0.00 77 1006.8
20260504180032 10 360 0.0 0.0 0.00 0.00 0.00 76 1006.8
20260504174530 10 256 0.0 0.0 0.00 0.00 0.00 75 1006.9
20260504173029 11 250 0.0 0.0 0.00 0.00 0.00 73 1007.1
20260504171529 11 222 0.0 0.0 0.00 0.00 0.00 71 1007.1